Weather Roundup
Issued by NWS

Home | Current Version | Previous Version | Graphics & Text | Print | Product List | Glossary Off
Versions: 1 2 3 4 5 6 7 8 9 10 11 12 13 14 15 16 17 18 19 20 21 22 23 24 25 26 27 28 29 30 31 32 33 34 35 36 37 38 39 40 41 42 43 44 45 46 47 48 49 50

000
NZUS93 KARX 292310
HRRWXR

CURRENT HOURLY OBSERVATIONS ACROSS
MUCH OF THE UPPER MISSISSIPPI VALLEY
NATIONAL WEATHER SERVICE LA CROSSE WI
600 PM CDT MON AUG 29 2016


...SOUTHEAST MINNESOTA...


CITY           SKY/WX    TMP DP  RH WIND       PRES   REMARKS
ROCHESTER      MOSUNNY   81  72  74 S5        30.18S
ROCHESTER/MAYO FAIR      81  71  71 SW6       30.17F
WINONA         PTSUNNY   81  70  69 SW5       30.15F
AUSTIN         PTSUNNY   79  70  73 CALM      30.17S
ALBERT LEA     MOSUNNY   81  64  57 CALM      30.16F
DODGE CENTER   SUNNY     84  72  65 SW7       30.17F
PRESTON        CLOUDY    77  71  80 SW3       30.18F
OWATONNA       SUNNY     82  68  61 SW6       30.16F
FARIBAULT      SUNNY     82  70  65 S5        30.15F
$$

...ELSEWHERE IN MINNESOTA...


CITY           SKY/WX    TMP DP  RH WIND       PRES   REMARKS
MINNEAPOLIS    PTSUNNY   86  70  58 W9        30.12F HX  90
INTNL FALLS    SUNNY     77  65  66 NW8       30.10S
DULUTH         PTSUNNY   82  68  62 W10       30.12F
RED WING       SUNNY     84  70  61 SW6       30.12F
REDWOOD FALLS  MOSUNNY   84  71  65 SW9       30.12F
MANKATO        NOT AVBL
WORTHINGTON    MOSUNNY   80  70  71 S5        30.16F
FAIRMONT       CLOUDY    80  70  71 S8        30.15F
$$

...SOUTHWEST WISCONSIN...


CITY           SKY/WX    TMP DP  RH WIND       PRES   REMARKS
LA CROSSE      CLOUDY    82  73  74 S6        30.15S
PRAIRIE DU CHI CLOUDY    77  71  81 CALM      30.16S
BOSCOBEL       CLOUDY    80  73  79 CALM      30.17S
LONE ROCK      CLOUDY    80  73  79 NE3       30.17F
PLATTEVILLE    CLOUDY    79  76  89 CALM      30.19R
FORT MC COY    CLOUDY    79  71  76 SW5       30.18S
CAMP DOUGLAS   PTSUNNY   81  72  74 SW3       30.18R
MAUSTON-NEW LI CLOUDY    80  72  77 CALM      30.17S
VIROQUA        FAIR      77  71  82 S3        30.19F
WIS DELLS      PTSUNNY   78  68  72 S6        30.18F
$$

...ELSEWHERE IN WISCONSIN...


CITY           SKY/WX    TMP DP  RH WIND       PRES   REMARKS
MILWAUKEE      PTSUNNY   79  69  71 SE3       30.19S
MADISON        CLOUDY    82  71  69 VRB3      30.18S
GREEN BAY      SUNNY     81  71  71 SW5       30.17R
EAU CLAIRE     MOSUNNY   83  71  67 SW7       30.14F
BLACK RVR FLS  FAIR      82  72  71 S3        30.16S
MEDFORD        MOSUNNY   79  73  82 SW7       30.19S
WAUSAU         PTSUNNY   82  69  64 SW9       30.17S
WIS RAPIDS     CLOUDY    80  71  74 S6        30.19S
MARSHFIELD     MOSUNNY   82  70  66 W7        30.18S
RICE LAKE      MOSUNNY   79  68  70 S5        30.17F
$$

...NORTHEAST IOWA...


CITY           SKY/WX    TMP DP  RH WIND       PRES   REMARKS
WATERLOO       LGT RAIN  71  67  87 S8        30.14F
DUBUQUE        CLOUDY    79  73  82 CALM      30.19R
DECORAH        CLOUDY    77  75  94 CALM      30.17S
MASON CITY     CLOUDY    76  68  76 SW6       30.18S
CHARLES CITY   CLOUDY    77  77 100 SE9G16    30.17F
OELWEIN        CLOUDY    75  72  88 S7        30.16F
$$

...ELSEWHERE IN IOWA...


CITY           SKY/WX    TMP DP  RH WIND       PRES   REMARKS
DES MOINES     PTSUNNY   79  74  84 NE7       30.15S
IOWA CITY      CLOUDY    74  69  85 SE8       30.17F
FORT DODGE     CLOUDY    81  72  74 E8        30.17R
MARSHALLTOWN   LGT RAIN  71  68  90 NE9       30.15F
CEDAR RAPIDS   CLOUDY    78  71  79 SE10      30.16R
$$

...NORTHERN ILLINOIS...


CITY           SKY/WX    TMP DP  RH WIND       PRES   REMARKS
CHICAGO-OHARE  CLOUDY    76  72  87 N3        30.18S
CHICAGO-MIDWAY CLOUDY    80  71  74 CALM      30.18S
MOLINE         PTSUNNY   81  72  74 NE6       30.16S
ROCKFORD       TSTM      73  70  90 E12       30.23R FOG
PEORIA         PTSUNNY   85  74  69 SE5       30.15R HX  92
$$

NOTE: "FAIR" INDICATES FEW OR NO CLOUDS BELOW 12,000 FEET WITH NO
SIGNIFICANT WEATHER AND/OR OBSTRUCTIONS TO VISIBILITY. WIND
SPEEDS ARE IN MILES-PER-HOUR.




USA.gov is the U.S. government's official web portal to all federal, state and local government web resources and services.